Location: St. Louis
(38.6270°N, 90.1994°W)
Time: 09:09:20
(UTC-06:00)

SR - Pass Details

Date: 05 December 2021
Orbit: 582 x 872 km, 66.7° (Epoch: 21 January)

Event Time Altitude Azimuth Distance (km) Brightness Sun altitude
Rises 08:03:32 0° 332° (NNW) 2,834 ? 8.9°
Reaches altitude 10° 08:05:44 10° 333° (NNW) 1,949 ? 9.2°
Maximum altitude 08:10:06 85° 60° (ENE) 633 ? 9.9°
Drops below altitude 10° 08:14:46 10° 151° (SSE) 2,070 ? 10.6°
Sets 08:17:09 0° 152° (SSE) 3,026 ? 11.0°
